Wind_Speed
38 38 38 38 38 38 38 37 37 38 37 35 34 34 34 34 35 37 38 40 41 42 42 42 41 40 39 38 37 36 35 35 34 33 32 31 29 29 30 30 29 28
37 37 37 37 38 39 41 42 40 41 41 39 37 35 34 34 34 35 36 37 39 40 41 42 41 41 40 40 39 38 37 37 37 36 36 35 34 32 31 31 32 31
38 40 40 40 41 42 44 44 43 44 43 42 41 39 37 37 37 37 36 36 37 38 39 40 41 41 40 40 39 38 38 38 38 38 38 38 37 35 33 32 33 33
40 43 45 46 46 46 45 45 44 44 44 43 42 42 41 41 41 41 39 38 38 38 39 40 40 41 41 41 40 40 39 39 39 40 40 39 38 37 35 33 33 34
41 47 51 51 50 49 48 47 47 47 47 45 43 43 44 45 45 45 43 42 41 41 42 42 43 43 44 44 43 43 42 41 41 41 41 40 39 38 37 36 35 35
43 47 52 53 52 51 50 50 51 51 50 48 45 45 46 47 47 47 47 46 45 45 45 45 46 47 47 47 47 46 45 44 44 44 44 43 42 41 40 40 39 38
48 50 53 53 53 52 51 50 51 51 50 48 47 47 47 48 48 49 49 49 49 48 48 48 49 49 50 50 50 49 48 48 48 48 47 47 46 45 44 44 44 43
53 55 56 56 55 54 51 49 49 50 50 50 49 49 50 51 51 52 52 52 52 51 51 51 51 52 52 52 52 52 52 52 52 52 52 52 51 51 50 49 49 48
57 59 59 59 57 55 53 52 51 52 53 53 53 53 54 54 54 55 55 54 54 54 55 55 56 56 55 55 54 54 55 55 55 55 54 54 54 54 54 54 53 52
58 60 60 59 58 56 55 54 55 55 56 57 57 56 55 54 55 56 56 55 56 56 57 58 58 58 57 56 55 55 55 56 56 56 55 54 54 54 54 55 55 54
58 60 61 60 60 59 58 57 57 57 56 56 57 56 54 53 54 55 56 57 57 57 57 57 58 57 56 55 56 55 56 55 55 55 55 54 53 52 52 52 53 53
56 58 60 61 62 62 62 61 59 58 56 56 56 56 55 55 56 56 56 57 57 56 56 57 57 56 55 55 55 55 55 54 55 54 53 52 51 50 49 49 49 49
54 55 56 58 60 60 60 60 59 57 56 55 55 55 56 57 57 57 56 56 57 58 59 59 57 57 56 55 55 55 55 54 54 53 52 50 49 47 46 46 45 44
53 54 54 54 55 56 56 56 55 54 54 54 54 54 55 56 56 56 56 57 58 60 62 62 60 59 58 57 57 58 57 55 54 51 49 48 48 46 42 39 39 38
54 54 53 53 52 53 54 53 52 51 51 51 51 52 53 54 53 53 53 54 57 60 61 61 59 59 59 59 59 59 58 55 53 50 47 45 45 44 41 38 40 42
55 55 54 53 51 51 51 52 51 51 49 48 48 49 51 51 50 50 50 53 56 58 58 57 57 58 57 58 59 59 58 56 54 52 48 44 43 43 44 46 49 52
56 56 56 56 55 54 53 52 53 53 52 50 48 48 49 49 47 47 49 51 54 55 57 58 59 59 58 57 57 58 58 57 56 56 54 50 48 48 50 53 55 55
57 57 57 57 58 58 57 55 55 55 55 53 50 48 49 50 49 48 49 51 51 53 57 60 61 60 58 57 56 56 56 56 57 59 59 57 55 54 56 56 56 56
58 58 58 59 59 59 59 59 58 58 57 56 53 51 51 53 54 54 55 56 57 58 59 61 62 60 58 58 57 56 56 56 58 61 61 60 58 58 59 59 58 59
61 60 60 60 60 61 61 61 61 61 60 58 57 56 55 56 57 59 61 63 64 65 66 66 66 64 63 62 62 62 61 60 60 62 62 62 62 61 61 62 63 65
63 62 62 62 62 61 62 62 63 62 61 59 59 59 59 60 60 62 65 67 69 70 71 71 71 71 70 70 69 68 67 66 64 63 64 65 66 66 67 68 70 72
63 61 61 62 63 63 63 63 64 63 62 61 61 62 63 63 64 65 67 70 72 74 74 75 75 75 75 75 74 74 73 72 70 69 69 71 72 74 75 76 77 78
60 60 60 61 62 63 64 65 65 65 64 64 64 65 65 66 67 68 68 70 73 76 78 79 80 80 79 79 78 78 78 78 77 76 76 77 78 80 80 81 81 81
58 57 58 60 61 62 63 64 65 65 66 67 67 68 68 68 69 70 71 72 73 76 79 81 83 84 84 83 83 82 82 81 81 81 81 81 82 83 83 83 83 83
58 57 57 58 59 60 61 62 63 65 67 68 69 69 70 70 71 72 73 75 75 76 78 80 83 85 86 86 86 85 84 83 83 84 84 85 85 85 85 85 86 87
59 59 59 58 58 59 59 59 61 63 65 66 67 68 68 70 71 73 74 76 77 78 79 80 81 82 84 85 85 85 86 86 86 87 87 87 88 88 88 89 89 89
Wind_Direction
277 277 277 277 276 274 273 272 270 268 267 266 267 269 271 271 269 267 266 265 265 265 266 268 270 271 272 273 273 274 275 276 276 276 276 277 281 282 277 271 267 265
274 274 274 273 271 270 271 272 272 271 270 268 266 267 269 271 270 269 268 267 266 265 265 266 267 267 268 269 271 272 273 273 273 273 273 274 276 279 278 273 268 266
270 268 268 266 265 266 268 270 272 272 272 271 269 268 267 268 267 266 265 264 263 263 262 262 262 263 265 266 268 270 271 271 271 271 272 273 274 275 275 273 270 268
267 267 265 264 264 266 268 269 270 270 271 271 271 269 268 267 266 263 262 261 261 260 259 259 260 261 263 264 266 268 269 269 269 269 270 271 272 273 272 271 271 271
268 267 266 266 266 267 268 268 268 268 269 270 270 268 267 267 266 263 262 263 263 262 261 261 262 262 263 264 266 267 268 269 268 268 268 269 270 270 269 269 270 273
261 262 265 267 268 268 267 266 265 267 269 271 270 267 265 265 264 263 263 264 265 265 264 265 265 265 266 266 267 268 268 268 268 268 268 268 268 268 268 268 269 271
252 255 260 264 266 268 267 266 265 266 268 269 269 267 266 266 265 264 264 266 266 266 266 266 266 266 267 267 268 269 269 270 270 270 269 269 269 269 269 269 269 269
250 252 256 260 263 265 265 265 265 265 266 266 266 267 268 269 269 268 268 268 268 268 268 267 267 268 268 269 270 270 271 272 272 272 272 272 271 270 270 270 270 270
251 250 252 256 259 262 263 263 263 264 265 265 266 267 268 269 269 268 268 269 269 269 268 269 269 269 270 271 271 272 272 272 273 273 273 273 272 271 271 270 270 270
254 250 250 253 255 259 261 261 263 264 265 267 267 268 268 267 267 267 268 269 269 269 268 269 269 269 270 270 271 271 271 272 272 272 273 273 273 272 271 270 269 269
255 252 251 251 253 255 258 260 262 263 265 266 267 268 267 266 266 267 268 269 269 269 268 267 267 267 268 269 270 270 270 271 271 271 272 272 272 272 272 271 269 268
254 252 252 252 252 253 256 258 261 262 263 264 265 265 265 265 265 266 267 268 268 267 266 265 266 267 267 268 268 268 269 270 270 271 271 272 272 271 271 271 270 269
253 253 252 252 253 254 255 257 259 261 263 263 264 264 264 264 264 265 266 267 267 267 266 265 266 267 266 265 265 266 267 269 271 271 272 271 270 270 271 272 271 270
255 254 253 253 254 255 256 257 259 260 262 263 263 263 263 264 265 265 266 266 267 268 268 269 269 268 266 264 263 264 266 268 269 270 272 272 271 269 270 270 268 268
256 256 256 255 255 255 256 258 259 260 261 262 264 265 265 265 265 266 266 266 267 268 271 273 272 271 270 269 269 269 270 270 269 269 271 273 271 269 266 264 267 272
254 255 255 255 255 255 255 256 257 258 258 261 265 266 266 266 265 263 264 265 267 269 270 269 269 270 271 273 274 275 276 276 275 275 276 275 273 270 268 268 273 277
253 253 253 253 254 254 254 255 256 256 257 258 262 264 265 265 263 260 261 263 266 268 268 266 266 267 270 272 273 274 276 278 280 281 281 280 277 274 273 274 277 280
251 252 253 253 253 254 254 253 254 255 255 256 257 258 260 262 260 256 255 257 259 261 263 265 267 268 270 271 271 270 272 274 277 279 280 281 280 279 279 280 281 282
251 251 251 252 253 253 254 253 253 253 254 254 254 253 254 257 259 257 255 254 254 255 257 261 264 266 267 268 268 268 268 269 272 275 277 279 279 279 280 281 281 282
252 251 251 252 252 253 254 255 255 255 255 255 255 254 253 253 255 256 256 256 256 256 257 259 261 262 263 263 264 266 267 269 270 271 273 275 275 275 275 276 277 279
254 253 252 252 253 253 255 256 257 258 258 257 256 256 255 254 253 254 254 255 256 257 259 260 261 262 262 262 263 265 266 268 268 269 270 271 271 271 271 272 274 276
258 257 255 254 254 254 254 255 256 257 257 257 257 257 257 256 255 254 253 253 254 255 257 258 260 261 262 263 264 265 266 267 268 268 268 269 269 270 271 273 275 277
260 259 258 257 256 255 254 254 254 254 255 255 255 255 256 257 257 257 255 254 253 253 254 256 257 259 260 262 263 264 265 266 268 268 269 270 271 272 273 275 277 279
260 258 258 257 257 256 255 255 254 254 253 253 253 253 254 255 256 257 257 256 255 254 253 254 255 257 258 259 260 262 263 265 266 268 269 271 272 273 274 275 277 279
261 259 258 257 256 256 255 255 255 254 253 253 253 253 253 253 254 255 256 256 256 256 255 255 255 256 257 258 259 260 261 263 265 266 268 269 271 272 273 274 276 278
261 261 260 258 257 256 255 255 254 254 254 254 254 253 253 254 254 254 255 255 256 257 257 257 257 257 257 258 259 260 261 262 264 265 266 268 269 271 272 273 275 276
Height
10565 10565 10566 10567 10568 10569 10570 10572 10573 10573 10573 10574 10575 10575 10576 10577 10578 10578 10579 10580 10580 10581 10581 10582 10583 10583 10584 10585 10585 10586 10586 10587 10587 10588 10588 10588 10589 10589 10590 10590 10591 10591
10560 10559 10561 10562 10563 10563 10564 10566 10568 10568 10569 10570 10570 10571 10571 10572 10572 10573 10573 10574 10574 10575 10575 10576 10577 10578 10579 10579 10580 10581 10581 10582 10582 10583 10583 10583 10584 10584 10584 10585 10585 10586
10554 10554 10556 10557 10558 10558 10558 10561 10563 10563 10564 10565 10565 10566 10567 10567 10568 10568 10568 10569 10569 10569 10570 10571 10571 10572 10573 10574 10575 10575 10576 10577 10577 10578 10578 10578 10579 10579 10579 10580 10580 10580
10551 10549 10549 10551 10552 10553 10553 10555 10558 10558 10558 10560 10561 10561 10562 10562 10563 10563 10563 10564 10564 10565 10565 10565 10566 10567 10567 10568 10569 10570 10571 10571 10572 10573 10573 10573 10574 10574 10574 10575 10575 10575
10548 10544 10542 10544 10547 10548 10549 10549 10551 10551 10552 10554 10556 10557 10557 10557 10558 10558 10558 10559 10559 10559 10560 10560 10561 10561 10562 10563 10563 10564 10565 10566 10567 10567 10568 10568 10569 10570 10570 10570 10571 10571
10543 10538 10536 10538 10540 10542 10543 10543 10543 10544 10546 10549 10550 10551 10552 10552 10552 10553 10553 10553 10553 10554 10554 10554 10555 10555 10556 10557 10558 10559 10560 10560 10561 10562 10562 10563 10564 10564 10565 10566 10566 10567
10538 10535 10532 10533 10534 10535 10536 10536 10537 10538 10540 10542 10544 10545 10545 10546 10546 10546 10546 10547 10547 10547 10547 10548 10548 10549 10550 10551 10552 10553 10554 10554 10555 10556 10556 10557 10558 10559 10560 10560 10561 10562
10532 10531 10529 10528 10528 10529 10530 10530 10531 10532 10534 10536 10537 10538 10538 10539 10539 10539 10539 10539 10540 10540 10540 10541 10541 10542 10543 10545 10546 10547 10548 10548 10549 10550 10550 10551 10551 10552 10553 10554 10555 10556
10525 10525 10525 10524 10523 10524 10525 10525 10525 10526 10527 10529 10531 10531 10532 10532 10532 10531 10532 10532 10533 10533 10533 10534 10534 10535 10536 10538 10540 10541 10541 10542 10542 10543 10543 10544 10544 10545 10546 10546 10547 10548
10518 10518 10518 10519 10519 10520 10520 10520 10520 10520 10521 10523 10524 10524 10525 10525 10525 10525 10525 10526 10526 10526 10526 10527 10527 10528 10530 10531 10532 10533 10533 10534 10534 10535 10536 10536 10537 10538 10538 10539 10539 10540
10511 10511 10512 10513 10514 10514 10514 10514 10514 10514 10515 10517 10517 10517 10518 10519 10518 10518 10518 10518 10518 10518 10519 10519 10519 10521 10523 10524 10524 10525 10525 10526 10526 10527 10528 10529 10529 10530 10531 10531 10532 10533
10505 10505 10505 10506 10507 10507 10507 10508 10508 10508 10509 10510 10510 10510 10511 10511 10511 10511 10510 10509 10509 10510 10510 10510 10511 10513 10515 10516 10516 10516 10517 10517 10518 10519 10520 10521 10522 10523 10523 10524 10525 10526
10499 10499 10499 10499 10499 10500 10501 10501 10502 10502 10502 10503 10503 10503 10504 10503 10503 10503 10503 10501 10500 10500 10500 10502 10505 10507 10508 10508 10508 10508 10509 10510 10511 10512 10513 10514 10515 10516 10517 10517 10517 10518
10492 10493 10493 10493 10494 10494 10495 10495 10497 10497 10496 10496 10496 10496 10496 10497 10496 10496 10495 10493 10492 10490 10490 10493 10497 10498 10499 10500 10500 10500 10502 10503 10504 10505 10506 10507 10508 10509 10510 10510 10511 10512
10485 10486 10486 10487 10488 10489 10489 10489 10490 10491 10490 10489 10488 10489 10489 10491 10491 10490 10487 10485 10484 10484 10484 10485 10486 10486 10487 10488 10489 10491 10494 10496 10497 10499 10501 10502 10503 10503 10504 10504 10504 10505
10478 10478 10479 10480 10481 10482 10483 10484 10484 10484 10484 10484 10483 10482 10482 10484 10485 10483 10480 10479 10478 10478 10479 10478 10477 10477 10478 10479 10479 10481 10483 10486 10488 10490 10493 10495 10496 10497 10497 10497 10497 10497
10471 10471 10471 10473 10474 10475 10476 10477 10477 10477 10478 10478 10478 10477 10476 10477 10477 10476 10475 10474 10473 10472 10471 10470 10470 10472 10473 10474 10473 10473 10474 10475 10476 10477 10481 10485 10488 10489 10489 10489 10489 10489
10464 10464 10464 10465 10466 10467 10468 10469 10470 10470 10471 10473 10473 10473 10471 10471 10471 10471 10470 10469 10469 10467 10464 10462 10463 10465 10467 10468 10469 10469 10469 10470 10469 10468 10469 10473 10476 10478 10479 10479 10479 10479
10456 10456 10456 10457 10458 10459 10460 10461 10461 10462 10464 10466 10467 10467 10466 10465 10465 10465 10464 10463 10462 10460 10458 10456 10457 10459 10460 10460 10461 10463 10464 10465 10464 10462 10463 10464 10466 10467 10467 10468 10469 10469
10446 10447 10448 10449 10450 10450 10451 10452 10453 10454 10456 10458 10460 10460 10460 10459 10459 10459 10458 10456 10454 10452 10451 10451 10452 10453 10453 10453 10454 10456 10457 10459 10458 10458 10458 10458 10459 10459 10460 10460 10461 10462
10435 10438 10439 10440 10441 10442 10443 10443 10444 10445 10447 10450 10451 10452 10452 10452 10452 10452 10451 10449 10447 10445 10445 10445 10445 10445 10445 10446 10447 10448 10450 10452 10452 10452 10451 10451 10452 10452 10453 10453 10454 10454
10426 10428 10429 10430 10431 10432 10433 10434 10434 10436 10438 10440 10441 10442 10442 10442 10442 10442 10442 10442 10441 10440 10439 10438 10437 10437 10437 10438 10440 10441 10443 10445 10445 10446 10446 10445 10444 10444 10444 10445 10445 10445
10416 10418 10419 10419 10420 10421 10423 10424 10425 10426 10428 10429 10430 10431 10431 10432 10432 10432 10432 10432 10432 10432 10432 10431 10430 10430 10430 10431 10433 10434 10436 10437 10438 10439 10439 10438 10437 10436 10436 10436 10436 10436
10406 10408 10409 10409 10410 10410 10412 10414 10415 10417 10417 10418 10418 10420 10421 10421 10421 10421 10421 10422 10422 10422 10422 10422 10422 10422 10423 10424 10425 10427 10428 10429 10430 10431 10430 10430 10429 10428 10428 10427 10427 10427
10395 10398 10399 10399 10400 10401 10403 10405 10406 10406 10407 10407 10408 10409 10410 10411 10412 10412 10412 10411 10411 10411 10411 10411 10412 10412 10414 10415 10417 10419 10421 10422 10422 10422 10422 10421 10421 10420 10420 10419 10419 10418
10386 10386 10388 10389 10391 10392 10393 10395 10395 10396 10396 10397 10398 10400 10401 10402 10402 10402 10402 10401 10401 10401 10401 10401 10402 10403 10404 10406 10408 10411 10413 10414 10414 10414 10413 10413 10413 10413 10413 10412 10412 10411